Regional Weather Roundup
Issued by NWS

Home | Current Version | Previous Version | Graphics & Text | Print | Product List | Glossary On
Versions: 1 2 3 4 5 6 7 8 9 10 11 12 13 14 15 16 17 18 19 20 21 22 23 24 25 26 27 28 29 30 31 32 33 34 35 36 37 38 39 40 41 42 43 44 45 46 47 48 49 50
804
ASUS43 KLMK 142210
RWRKY
KENTUCKY REGIONAL WEATHER ROUNDUP
NATIONAL WEATHER SERVICE LOUISVILLE KY
500 PM EST SUN FEB 14 2016

NOTE "FAIR" INDICATES FEW OR NO CLOUDS BELOW 12,000 FEET
WITH NO SIGNIFICANT WEATHER AND/OR OBSTRUCTIONS TO VISIBILITY.

KYZ001>023-026-027-061>063-070>075-142300-
WESTERN AND SOUTH CENTRAL KENTUCKY

CITY           SKY/WX    TMP DP  RH WIND       PRES   REMARKS
PADUCAH        CLOUDY    28  25  88 S9        30.03S WCI  19
HENDERSON      CLOUDY    25  19  80 E8        30.07F WCI  16
OWENSBORO      LGT SNOW  24  23  96 E7        30.09F VSB 1   WCI  16
HOPKINSVILLE   FRZ DRZL  29  23  78 N7        30.05R WCI  22
BOWLING GREEN  FRZ RAIN  28  24  85 E6        30.07F FOG     WCI  22
GLASGOW        FLURRIES  27  24  90 E7        30.08S WCI  19
$$

KYZ024-025-028>034-038-045-046-053-142300-
NORTH CENTRAL KENTUCKY

CITY           SKY/WX    TMP DP  RH WIND       PRES   REMARKS
LOUISVILLE/SDF HVY SNOW  22  18  85 E7        30.13F VSB 1/4 WCI  13
LOUISVILLE/LOU LGT SNOW  21  17  84 E9        30.14F VSB 3/4 WCI  11
FORT KNOX      LGT SNOW  21  19  93 E8        30.08F VSB 3/4 WCI  12
$$

KYZ035>037-039>044-047>052-055>060-089>105-142300-
NORTHEAST KENTUCKY

CITY           SKY/WX    TMP DP  RH WIND       PRES   REMARKS
LEXINGTON      SNOW      20  16  84 E12       30.13F VSB 1/2 WCI   8
COVINGTON      HVY SNOW  18  14  84 SE10      30.19R VSB 1/4 WCI   6
FRANKFORT      SNOW      20  16  84 NE8       30.17R VSB 1/2 WCI  10
$$

KYZ054-064>069-076>088-106>120-142300-
SOUTHEAST KENTUCKY

CITY           SKY/WX    TMP DP  RH WIND       PRES   REMARKS
JACKSON        LGT SNOW  21  16  81 CALM      30.16F VSB 3/4
LONDON         SNOW      22  18  85 SE7       30.14F VSB 1/2 WCI  13
SOMERSET       LGT SNOW  23  21  93 SE5       30.14F VSB 1   WCI  17
MIDDLESBORO    SNOW      21  20  96 CALM      30.20F VSB 1/2
MONTICELLO     LGT SNOW  26  23  88 SE10      30.12F FOG     WCI  16
$$





USA.gov is the U.S. government's official web portal to all federal, state and local government web resources and services.